Location: Unspecified
(48.2082°N, 0.0000°E)
Time: 21:01:13
(UTC+00:00)

S-56A Canister/Altair - Pass Details

Date: 28 June 2019
Orbit: 633 x 2499 km, 38.9° (Epoch: 22 October)

Event Time Altitude Azimuth Distance (km) Brightness Sun altitude
Rises 14:18:06 0° 236° (SW) 5,821 12.6 53.5°
Reaches altitude 10° 14:22:31 10° 230° (SW) 4,591 12.3 52.9°
Maximum altitude 14:33:24 41° 167° (SSE) 2,205 10.5 51.3°
Drops below altitude 10° 14:40:58 10° 101° (E) 3,208 10.5 50.1°
Sets 14:43:31 0° 93° (E) 3,951 10.8 49.7°
